Location: Proctor
(47.8934°N, 114.3048°W)
Time: 12:06:00
(UTC+00:00)

AIST 2D - Pass Details

Date: 04 July 2022
Orbit: 433 x 444 km, 97.0° (Epoch: 10 August)

Event Time Altitude Azimuth Distance (km) Brightness Sun altitude
Rises 06:15:05 0° 358° (N) 2,428 ? -16.6°
Reaches altitude 10° 06:17:30 10° 339° (NNW) 1,556 ? -16.8°
Maximum altitude 06:19:53 18° 294° (WNW) 1,133 ? -16.9°
Drops below altitude 10° 06:22:15 10° 248° (WSW) 1,551 ? -17.0°
Enters shadow 06:23:24 - 237° (WSW) 1,940 ? -17.1°
